Cruise_ID,Date_UTC,Time_UTC,Date_EDT,Time_EDT,Latitude,Longitude,pH,Temp_C,Ship_Sal_PSU
11BHM01,5/3/2011,20:20,5/3/2011,16:20,27.60532,-82.73097,8.397,26.7,35.87
11BHM01,5/3/2011,20:35,5/3/2011,16:35,27.60753,-82.76568,8.3188,26.72,35.9
11BHM01,5/3/2011,20:50,5/3/2011,16:50,27.6095,-82.8015,8.1298,26.56,35.95
11BHM01,5/3/2011,21:05,5/3/2011,17:05,27.6176,-82.83628,8.0019,26.59,35.97
11BHM01,5/3/2011,21:20,5/3/2011,17:20,27.64037,-82.86753,8.0976,26.59,35.99
11BHM01,5/3/2011,21:35,5/3/2011,17:35,27.66347,-82.89925,8.4144,26.53,36.02
11BHM01,5/3/2011,21:50,5/3/2011,17:50,27.68668,-82.93108,8.204,26.53,36.03
11BHM01,5/3/2011,22:05,5/3/2011,18:05,27.7101,-82.96308,8.0519,26.56,36.07
11BHM01,5/3/2011,22:20,5/3/2011,18:20,27.73367,-82.99523,7.9874,26.51,36.05
11BHM01,5/3/2011,22:35,5/3/2011,18:35,27.75717,-83.0276,8.2956,26.48,36.04
11BHM01,5/3/2011,22:50,5/3/2011,18:50,27.78063,-83.05975,8.1567,26.48,36.02
11BHM01,5/3/2011,23:05,5/3/2011,19:05,27.80428,-83.09203,8.0167,26.45,36.02
11BHM01,5/3/2011,23:20,5/3/2011,19:20,27.82792,-83.1246,8.1659,26.35,36.02
11BHM01,5/3/2011,23:35,5/3/2011,19:35,27.85168,-83.15723,8.1331,26.32,36.2
11BHM01,5/3/2011,23:50,5/3/2011,19:50,27.8755,-83.1899,8.0465,26.32,36.22
11BHM01,5/4/2011,0:05,5/3/2011,20:05,27.89952,-83.22262,8.1458,26.27,36.24
11BHM01,5/4/2011,0:20,5/3/2011,20:20,27.9235,-83.2556,8.1647,26.19,36.21
11BHM01,5/4/2011,0:35,5/3/2011,20:35,27.94747,-83.28847,8.1063,26.16,36.23
11BHM01,5/4/2011,0:50,5/3/2011,20:50,27.97158,-83.32158,8.1878,26.16,36.23
11BHM01,5/4/2011,1:05,5/3/2011,21:05,27.99568,-83.35478,8.1997,25.92,36.22
11BHM01,5/4/2011,1:20,5/3/2011,21:20,28.01993,-83.3881,8.1867,25.89,36.21
11BHM01,5/4/2011,1:35,5/3/2011,21:35,28.04437,-83.42152,7.9141,25.6,36.2
11BHM01,5/4/2011,1:50,5/3/2011,21:50,28.06885,-83.45527,8.0892,25.97,36.18
11BHM01,5/4/2011,2:05,5/3/2011,22:05,28.09345,-83.48928,8.023,25.95,36.17
11BHM01,5/4/2011,2:20,5/3/2011,22:20,28.11845,-83.52353,8.1658,25.73,36.11
11BHM01,5/4/2011,2:35,5/3/2011,22:35,28.14333,-83.55765,8.0659,25.44,36.17
11BHM01,5/4/2011,2:50,5/3/2011,22:50,28.1674,-83.59078,7.9326,25.34,36.21
11BHM01,5/4/2011,3:05,5/3/2011,23:05,28.19153,-83.62398,8.0167,25.34,36.23
11BHM01,5/4/2011,3:20,5/3/2011,23:20,28.21547,-83.65697,8.0057,25.21,36.23
11BHM01,5/4/2011,3:35,5/3/2011,23:35,28.23923,-83.68983,8.1884,25.21,36.21
11BHM01,5/4/2011,3:50,5/3/2011,23:50,28.26278,-83.72222,8.3218,25.18,36.24
11BHM01,5/4/2011,4:05,5/4/2011,0:05,28.28633,-83.7545,8.0537,25.08,36.26
11BHM01,5/4/2011,4:20,5/4/2011,0:20,28.30962,-83.78657,8.2,24.92,36.24
11BHM01,5/4/2011,4:35,5/4/2011,0:35,28.33275,-83.81865,8.1601,24.84,36.19
11BHM01,5/4/2011,4:50,5/4/2011,0:50,28.35593,-83.85035,7.7539,24.76,36.24
11BHM01,5/4/2011,5:05,5/4/2011,1:05,28.37887,-83.88208,7.9595,24.84,36.24
11BHM01,5/4/2011,5:20,5/4/2011,1:20,28.40197,-83.91373,8.0448,24.71,36.21
11BHM01,5/4/2011,5:35,5/4/2011,1:35,28.42493,-83.94545,8.0465,24.92,36.13
11BHM01,5/4/2011,5:50,5/4/2011,1:50,28.4478,-83.97713,8.0379,24.84,36.04
11BHM01,5/4/2011,6:05,5/4/2011,2:05,28.47073,-84.00888,8.1144,24.74,35.95
11BHM01,5/4/2011,6:20,5/4/2011,2:20,28.49355,-84.0403,8.1191,24.76,35.86
11BHM01,5/4/2011,6:35,5/4/2011,2:35,28.51633,-84.07177,8.2062,24.55,35.83
11BHM01,5/4/2011,6:50,5/4/2011,2:50,28.53905,-84.10293,8.0373,24.63,35.83
11BHM01,5/4/2011,7:05,5/4/2011,3:05,28.56175,-84.1344,8.1733,24.55,35.83
11BHM01,5/4/2011,7:20,5/4/2011,3:20,28.58453,-84.1658,7.9451,24.53,35.84
11BHM01,5/4/2011,7:35,5/4/2011,3:35,28.60752,-84.19755,8.0283,24.27,35.84
11BHM01,5/4/2011,7:50,5/4/2011,3:50,28.6304,-84.2292,8.2198,24.42,35.84
11BHM01,5/4/2011,8:05,5/4/2011,4:05,28.65297,-84.26025,8.2281,24.42,35.83
11BHM01,5/4/2011,8:20,5/4/2011,4:20,28.67778,-84.28857,8.0707,24.37,35.83
11BHM01,5/4/2011,8:35,5/4/2011,4:35,28.71033,-84.30775,8.0651,24.24,35.72
11BHM01,5/4/2011,8:50,5/4/2011,4:50,28.74288,-84.32685,7.9487,24.37,35.73
11BHM01,5/4/2011,9:05,5/4/2011,5:05,28.77545,-84.34598,8.1517,24.17,35.68
11BHM01,5/4/2011,9:20,5/4/2011,5:20,28.8081,-84.36528,7.9565,24.06,35.62
11BHM01,5/4/2011,9:35,5/4/2011,5:35,28.84085,-84.38465,8.2308,24.01,35.58
11BHM01,5/4/2011,9:50,5/4/2011,5:50,28.87347,-84.4037,8.1695,23.99,35.58
11BHM01,5/4/2011,10:05,5/4/2011,6:05,28.90608,-84.42297,8.1705,24.01,35.63
11BHM01,5/4/2011,10:20,5/4/2011,6:20,28.93867,-84.44218,8.2201,23.99,35.65
11BHM01,5/4/2011,10:35,5/4/2011,6:35,28.97125,-84.46143,7.9964,23.96,35.64
11BHM01,5/4/2011,10:50,5/4/2011,6:50,29.00398,-84.48078,8.0912,23.99,35.7
11BHM01,5/4/2011,11:05,5/4/2011,7:05,29.03655,-84.49985,8.1996,23.99,35.7
11BHM01,5/4/2011,11:20,5/4/2011,7:20,29.06908,-84.51907,7.9215,24.06,35.73
11BHM01,5/4/2011,11:35,5/4/2011,7:35,29.10172,-84.53837,8.0227,24.09,35.76
11BHM01,5/4/2011,11:50,5/4/2011,7:50,29.13422,-84.55752,8.1592,24.09,35.78
11BHM01,5/4/2011,12:05,5/4/2011,8:05,29.16667,-84.57677,7.9858,24.09,35.79
11BHM01,5/4/2011,12:20,5/4/2011,8:20,29.19893,-84.59578,8.0913,24.06,35.78
11BHM01,5/4/2011,12:35,5/4/2011,8:35,29.23003,-84.61422,7.9226,24.04,35.88
11BHM01,5/4/2011,12:50,5/4/2011,8:50,29.26062,-84.63222,7.9948,24.04,35.86
11BHM01,5/4/2011,13:05,5/4/2011,9:05,29.29067,-84.64995,8.1354,23.99,33.64
11BHM01,5/4/2011,13:20,5/4/2011,9:20,29.3196,-84.66715,8.1082,23.96,33.55
11BHM01,5/4/2011,13:35,5/4/2011,9:35,29.34842,-84.68323,8.0649,23.91,33.84
11BHM01,5/4/2011,13:50,5/4/2011,9:50,29.37472,-84.68862,8.0698,23.86,33.82
11BHM01,5/4/2011,14:05,5/4/2011,10:05,29.39962,-84.69465,7.9978,23.81,34.03
11BHM01,5/4/2011,14:20,5/4/2011,10:20,29.42468,-84.70133,8.073,23.75,34.04
11BHM01,5/4/2011,14:35,5/4/2011,10:35,29.4493,-84.70857,8.0612,23.7,33.87
11BHM01,5/4/2011,14:50,5/4/2011,10:50,29.47452,-84.71593,8.0221,23.65,33.89
11BHM01,5/4/2011,15:05,5/4/2011,11:05,29.49563,-84.72188,7.9381,23.55,34.06
11BHM01,5/4/2011,15:20,5/4/2011,11:20,29.51783,-84.72803,8.1458,23.55,34.36
11BHM01,5/4/2011,15:35,5/4/2011,11:35,29.54073,-84.73457,8.2105,23.5,34.63
11BHM01,5/4/2011,15:50,5/4/2011,11:50,29.56398,-84.7412,8.0285,23.4,34.69
11BHM01,5/4/2011,16:05,5/4/2011,12:05,29.58802,-84.74665,8.2017,23.37,34.74
11BHM01,5/4/2011,16:20,5/4/2011,12:20,29.60437,-84.75685,8.1092,23.27,34.78
11BHM01,5/4/2011,16:35,5/4/2011,12:35,29.58812,-84.78585,8.2043,23.19,34.8
11BHM01,5/4/2011,16:50,5/4/2011,12:50,29.57172,-84.81465,8.0343,23.09,34.84
11BHM01,5/4/2011,17:05,5/4/2011,13:05,29.55498,-84.84345,8.2614,22.99,34.89
11BHM01,5/4/2011,17:20,5/4/2011,13:20,29.5363,-84.87058,8.1369,22.91,34.92
11BHM01,5/4/2011,17:35,5/4/2011,13:35,29.5165,-84.89715,8.1382,22.91,34.95
11BHM01,5/4/2011,17:50,5/4/2011,13:50,29.498,-84.92393,8.1515,22.94,34.96
11BHM01,5/4/2011,18:05,5/4/2011,14:05,29.4794,-84.95067,8.8034,22.91,34.96
11BHM01,5/4/2011,18:20,5/4/2011,14:20,29.46067,-84.9766,8.2406,23.01,34.98
11BHM01,5/4/2011,18:35,5/4/2011,14:35,29.44505,-85.00313,8.3754,23.04,35.04
11BHM01,5/4/2011,18:50,5/4/2011,14:50,29.43773,-85.03317,8.0984,22.99,35.04
11BHM01,5/4/2011,19:05,5/4/2011,15:05,29.43045,-85.06265,8.1061,22.99,35.09
11BHM01,5/4/2011,19:13,5/4/2011,15:13,29.42665,-85.0782,8.1707,23.19,35.11
11BHM01,5/4/2011,19:28,5/4/2011,15:28,29.41918,-85.10755,7.7849,24.19,35.12
11BHM01,5/4/2011,19:43,5/4/2011,15:43,29.41237,-85.1375,8.504,24.3,35.11
11BHM01,5/4/2011,19:58,5/4/2011,15:58,29.40628,-85.16717,7.9909,24.22,35.09
11BHM01,5/4/2011,20:13,5/4/2011,16:13,29.4006,-85.19653,8.0281,24.11,35.12
11BHM01,5/4/2011,20:28,5/4/2011,16:28,29.396,-85.22608,8.0632,24.06,35.1
11BHM01,5/4/2011,20:43,5/4/2011,16:43,29.41942,-85.22768,7.9791,24.01,35.11
11BHM01,5/4/2011,20:58,5/4/2011,16:58,29.4433,-85.228,8.0219,23.96,32.68
11BHM01,5/4/2011,21:13,5/4/2011,17:13,29.46827,-85.22748,8.0235,23.91,32.54
11BHM01,5/4/2011,21:28,5/4/2011,17:28,29.49462,-85.22598,8.0484,23.88,32.46
11BHM01,5/4/2011,21:43,5/4/2011,17:43,29.5214,-85.22518,8.1148,23.88,33.08
11BHM01,5/4/2011,21:58,5/4/2011,17:58,29.549,-85.22438,8.0262,23.86,33.52
11BHM01,5/4/2011,22:13,5/4/2011,18:13,29.55812,-85.25333,8.0705,23.88,33.29
11BHM01,5/4/2011,22:28,5/4/2011,18:28,29.56738,-85.28312,8.1604,23.91,33.15
11BHM01,5/4/2011,22:43,5/4/2011,18:43,29.57585,-85.31505,7.9338,23.96,33.96
11BHM01,5/4/2011,22:58,5/4/2011,18:58,29.58342,-85.34552,8.1406,24.04,34.23
11BHM01,5/4/2011,23:13,5/4/2011,19:13,29.59082,-85.37607,8.1649,24.01,34.41
11BHM01,5/4/2011,23:28,5/4/2011,19:28,29.5973,-85.40717,8.109,24.04,35.14
11BHM01,5/4/2011,23:43,5/4/2011,19:43,29.60402,-85.43808,8.2135,24.35,34.78
11BHM01,5/4/2011,23:58,5/4/2011,19:58,29.6119,-85.46863,8.1353,24.89,34.59
11BHM01,5/5/2011,0:13,5/4/2011,20:13,29.62237,-85.48563,8.0546,25,35.25
11BHM01,5/5/2011,0:28,5/4/2011,20:28,29.61938,-85.45803,8.0606,24.95,34.81
11BHM01,5/5/2011,0:43,5/4/2011,20:43,29.60678,-85.4274,8.4972,24.71,34.58
11BHM01,5/5/2011,0:58,5/4/2011,20:58,29.59432,-85.39748,7.9866,24.68,34.47
11BHM01,5/5/2011,1:13,5/4/2011,21:13,29.58638,-85.37058,8.1107,24.68,34.51
11BHM01,5/5/2011,1:28,5/4/2011,21:28,29.61182,-85.39562,8.0066,24.66,34.45
11BHM01,5/5/2011,1:43,5/4/2011,21:43,29.63842,-85.42138,8.0825,24.4,34.45
11BHM01,5/5/2011,1:58,5/4/2011,21:58,29.6645,-85.4466,7.9491,24.27,34.45
11BHM01,5/5/2011,2:13,5/4/2011,22:13,29.69078,-85.47218,8.0841,23.63,34.39
11BHM01,5/5/2011,2:28,5/4/2011,22:28,29.7175,-85.49822,8.0066,23.78,34.42
11BHM01,5/5/2011,2:43,5/4/2011,22:43,29.74483,-85.5247,8.1104,24.06,34.49
11BHM01,5/5/2011,2:58,5/4/2011,22:58,29.77242,-85.55165,8.3192,24.01,34.62
11BHM01,5/5/2011,3:13,5/4/2011,23:13,29.80015,-85.5785,8.1765,23.88,34.53
11BHM01,5/5/2011,3:28,5/4/2011,23:28,29.82698,-85.60468,8.4921,24.04,34.47
11BHM01,5/5/2011,3:43,5/4/2011,23:43,29.85472,-85.63163,7.9706,24.17,34.46
11BHM01,5/5/2011,3:58,5/4/2011,23:58,29.8828,-85.65883,8.1902,24.22,34.5
11BHM01,5/5/2011,4:13,5/5/2011,0:13,29.9101,-85.68553,8.0036,24.22,34.56
11BHM01,5/5/2011,4:28,5/5/2011,0:28,29.9374,-85.7122,7.9477,24.35,34.66
11BHM01,5/5/2011,4:43,5/5/2011,0:43,29.96515,-85.73908,8.0774,24.24,34.5
11BHM01,5/5/2011,4:58,5/5/2011,0:58,29.99272,-85.76605,7.9573,24.24,34.39
11BHM01,5/5/2011,5:13,5/5/2011,1:13,30.0201,-85.79255,8.211,24.19,34.39
11BHM01,5/5/2011,5:28,5/5/2011,1:28,30.04727,-85.81912,7.9163,24.17,34.39
11BHM01,5/5/2011,5:43,5/5/2011,1:43,30.04198,-85.8096,8.6224,24.11,34.41
11BHM01,5/5/2011,5:58,5/5/2011,1:58,30.0212,-85.78205,8.2849,23.96,34.53
11BHM01,5/5/2011,6:13,5/5/2011,2:13,30.00043,-85.75458,8.578,23.99,34.65
11BHM01,5/5/2011,6:28,5/5/2011,2:28,29.97977,-85.72718,7.9111,24.01,34.62
11BHM01,5/5/2011,6:43,5/5/2011,2:43,29.95923,-85.70003,7.9239,23.96,34.59
11BHM01,5/5/2011,6:58,5/5/2011,2:58,29.93883,-85.67307,8.6948,23.93,34.63
11BHM01,5/5/2011,7:13,5/5/2011,3:13,29.9185,-85.64633,8.4357,23.99,34.71
11BHM01,5/5/2011,7:28,5/5/2011,3:28,29.89808,-85.61933,8.1843,23.99,34.73
11BHM01,5/5/2011,7:43,5/5/2011,3:43,29.87922,-85.59888,7.9945,24.09,34.81
11BHM01,5/5/2011,7:58,5/5/2011,3:58,29.89725,-85.62272,8.1259,24.14,34.71
11BHM01,5/5/2011,8:13,5/5/2011,4:13,29.92095,-85.64593,7.9563,24.17,34.67
11BHM01,5/5/2011,8:28,5/5/2011,4:28,29.94485,-85.66908,7.9563,24.17,34.63
11BHM01,5/5/2011,8:43,5/5/2011,4:43,29.96852,-85.69238,8.2613,24.04,34.58
11BHM01,5/5/2011,8:58,5/5/2011,4:58,29.99212,-85.71533,8.2096,24.01,34.58
11BHM01,5/5/2011,9:13,5/5/2011,5:13,30.01422,-85.73965,8.1362,23.91,34.33
11BHM01,5/5/2011,9:28,5/5/2011,5:28,30.00907,-85.73195,8.0875,23.81,34.36
11BHM01,5/5/2011,9:43,5/5/2011,5:43,29.98445,-85.70785,8.618,23.78,34.56
11BHM01,5/5/2011,9:58,5/5/2011,5:58,29.96,-85.68387,8.0873,23.75,34.57
11BHM01,5/5/2011,10:13,5/5/2011,6:13,29.93572,-85.66037,7.9895,23.7,34.61
11BHM01,5/5/2011,10:28,5/5/2011,6:28,29.91182,-85.63683,7.9687,23.63,34.65
11BHM01,5/5/2011,10:43,5/5/2011,6:43,29.88905,-85.61803,8.0732,23.75,34.6
11BHM01,5/5/2011,10:58,5/5/2011,6:58,29.90687,-85.6442,7.9434,23.83,34.58
11BHM01,5/5/2011,11:13,5/5/2011,7:13,29.91885,-85.6648,8.0707,23.81,34.58
11BHM01,5/5/2011,11:28,5/5/2011,7:28,29.93025,-85.68505,8.1737,23.81,34.69
11BHM01,5/5/2011,11:43,5/5/2011,7:43,29.94083,-85.70543,7.8674,23.86,34.77
11BHM01,5/5/2011,11:58,5/5/2011,7:58,29.95183,-85.72525,8.0153,23.88,34.81
11BHM01,5/5/2011,12:13,5/5/2011,8:13,29.96502,-85.7437,8.3591,23.91,34.4
11BHM01,5/5/2011,12:28,5/5/2011,8:28,29.97857,-85.76198,8.1445,23.88,34.39
11BHM01,5/5/2011,12:43,5/5/2011,8:43,29.99295,-85.77895,8.101,23.88,34.38
11BHM01,5/5/2011,12:58,5/5/2011,8:58,30.00748,-85.79575,8.1501,23.86,34.43
11BHM01,5/5/2011,13:13,5/5/2011,9:13,30.02195,-85.8131,8.0901,23.81,34.39
11BHM01,5/5/2011,13:28,5/5/2011,9:28,30.01267,-85.79458,8.1505,23.78,34.4
11BHM01,5/5/2011,13:43,5/5/2011,9:43,30.00265,-85.77508,8.0316,23.78,34.36
11BHM01,5/5/2011,13:58,5/5/2011,9:58,29.98832,-85.7581,8.248,23.83,34.6
11BHM01,5/5/2011,14:13,5/5/2011,10:13,29.97397,-85.741,8.0216,23.68,34.65
11BHM01,5/5/2011,14:28,5/5/2011,10:28,29.96823,-85.73342,7.9126,23.4,34.44
11BHM01,5/5/2011,14:43,5/5/2011,10:43,29.98157,-85.7524,8.1401,23.09,34.54
11BHM01,5/5/2011,14:58,5/5/2011,10:58,29.99497,-85.7714,8.2436,22.89,34.62
11BHM01,5/5/2011,15:13,5/5/2011,11:13,30.0087,-85.79037,7.9144,23.86,34.98
11BHM01,5/5/2011,15:28,5/5/2011,11:28,30.02225,-85.81,7.9802,23.78,35.26
11BHM01,5/5/2011,15:43,5/5/2011,11:43,30.03967,-85.82152,7.9861,23.78,35.41
11BHM01,5/5/2011,15:58,5/5/2011,11:58,30.05293,-85.8284,8.0174,23.75,35.55
11BHM01,5/5/2011,16:13,5/5/2011,12:13,30.05098,-85.82688,8.0469,23.63,35.64
11BHM01,5/5/2011,16:28,5/5/2011,12:28,30.04695,-85.83132,8.0708,23.68,35.67
11BHM01,5/5/2011,16:43,5/5/2011,12:43,30.04507,-85.8353,7.8951,23.68,35.67
11BHM01,5/5/2011,16:58,5/5/2011,12:58,30.05012,-85.8342,8.1518,23.81,35.61
11BHM01,5/5/2011,17:13,5/5/2011,13:13,30.0572,-85.82518,8.0361,23.73,35.56
11BHM01,5/5/2011,17:28,5/5/2011,13:28,30.0569,-85.82102,8.036,23.73,35.5
11BHM01,5/5/2011,17:43,5/5/2011,13:43,30.0609,-85.81363,8.0716,23.73,35.5
11BHM01,5/5/2011,17:58,5/5/2011,13:58,30.06795,-85.80298,8.1223,23.68,35.52
11BHM01,5/5/2011,18:13,5/5/2011,14:13,30.06315,-85.81378,7.9834,23.42,35.52
11BHM01,5/5/2011,18:28,5/5/2011,14:28,30.05355,-85.82997,8.2578,23.27,35.51
11BHM01,5/5/2011,18:43,5/5/2011,14:43,30.04943,-85.84838,8.0702,23.19,35.53
11BHM01,5/5/2011,18:58,5/5/2011,14:58,30.04833,-85.8605,8.0036,23.09,35.56
11BHM01,5/5/2011,19:13,5/5/2011,15:13,30.02585,-85.89537,8.1098,23.01,35.54
11BHM01,5/5/2011,19:28,5/5/2011,15:28,30.00298,-85.92975,8.1604,23.09,35.51
11BHM01,5/5/2011,19:43,5/5/2011,15:43,29.98045,-85.9635,7.9337,23.12,35.48
11BHM01,5/5/2011,19:58,5/5/2011,15:58,29.95787,-85.99708,8.3885,23.14,35.44
11BHM01,5/5/2011,20:13,5/5/2011,16:13,29.93553,-86.03065,8.022,23.19,35.47
11BHM01,5/5/2011,20:28,5/5/2011,16:28,29.9129,-86.06433,8.1378,23.17,35.48
11BHM01,5/5/2011,20:43,5/5/2011,16:43,29.89023,-86.09832,8.0742,23.17,35.53
11BHM01,5/5/2011,20:58,5/5/2011,16:58,29.8677,-86.132,8.1451,23.24,35.59
11BHM01,5/5/2011,21:13,5/5/2011,17:13,29.84493,-86.16618,8.0619,23.19,35.62
11BHM01,5/5/2011,21:28,5/5/2011,17:28,29.83217,-86.18778,8.1521,23.22,35.7
11BHM01,5/5/2011,21:43,5/5/2011,17:43,29.8325,-86.19285,8.1025,23.22,35.64
11BHM01,5/5/2011,21:58,5/5/2011,17:58,29.84143,-86.18173,8.1411,23.24,35.62
11BHM01,5/5/2011,22:20,5/5/2011,18:20,29.85522,-86.16573,7.9569,23.22,35.6
11BHM01,5/5/2011,22:35,5/5/2011,18:35,29.8637,-86.15492,7.9771,23.24,35.61
11BHM01,5/5/2011,22:49,5/5/2011,18:49,29.8681,-86.15248,9.1623,23.29,35.61
11BHM01,5/5/2011,23:04,5/5/2011,19:04,29.86578,-86.168,8.1676,23.37,35.58
11BHM01,5/5/2011,23:19,5/5/2011,19:19,29.8642,-86.18257,8.3704,23.34,35.6
11BHM01,5/5/2011,23:35,5/5/2011,19:35,29.86327,-86.1975,8.3219,23.32,35.7
11BHM01,5/5/2011,23:50,5/5/2011,19:50,29.86455,-86.21125,8.0997,23.27,35.69
11BHM01,5/6/2011,0:05,5/5/2011,20:05,29.84968,-86.22813,8.177,23.22,35.66
11BHM01,5/6/2011,0:19,5/5/2011,20:19,29.81722,-86.23545,8.2046,22.94,35.12
11BHM01,5/6/2011,0:34,5/5/2011,20:34,29.78833,-86.25965,8.1231,23.01,34.84
11BHM01,5/6/2011,0:49,5/5/2011,20:49,29.76712,-86.29275,8.3501,23.19,34.62
11BHM01,5/6/2011,1:05,5/5/2011,21:05,29.74525,-86.3287,8.0315,23.22,34.5
11BHM01,5/6/2011,1:35,5/5/2011,21:35,29.73502,-86.3538,8.1209,23.27,34.5
11BHM01,5/6/2011,1:49,5/5/2011,21:49,29.74163,-86.35335,8.1488,23.27,34.54
11BHM01,5/6/2011,2:04,5/5/2011,22:04,29.75085,-86.35005,8.0478,23.27,34.59
11BHM01,5/6/2011,2:19,5/5/2011,22:19,29.75627,-86.35098,8.4487,23.24,34.69
11BHM01,5/6/2011,2:35,5/5/2011,22:35,29.75385,-86.3645,8.0571,23.17,34.78
11BHM01,5/6/2011,2:50,5/5/2011,22:50,29.75063,-86.37657,8.0588,23.12,35.02
11BHM01,5/6/2011,3:05,5/5/2011,23:05,29.74517,-86.3861,8.2764,23.29,35.3
11BHM01,5/6/2011,3:19,5/5/2011,23:19,29.73945,-86.3967,8.5952,23.52,35.3
11BHM01,5/6/2011,3:34,5/5/2011,23:34,29.73415,-86.40653,8.6092,23.5,35.37
11BHM01,5/6/2011,3:49,5/5/2011,23:49,29.72943,-86.4149,8.0256,23.47,35.45
11BHM01,5/6/2011,4:05,5/6/2011,0:05,29.7143,-86.43083,8.1315,23.47,35.45
11BHM01,5/6/2011,4:20,5/6/2011,0:20,29.68147,-86.44458,8.1514,23.52,35.48
11BHM01,5/6/2011,4:35,5/6/2011,0:35,29.65742,-86.4676,8.1507,23.6,35.42
11BHM01,5/6/2011,4:49,5/6/2011,0:49,29.63435,-86.49702,8.1304,23.6,35.26
11BHM01,5/6/2011,5:19,5/6/2011,1:19,29.58878,-86.55447,8.1158,23.7,35.29
11BHM01,5/6/2011,5:35,5/6/2011,1:35,29.56647,-86.5833,8.3261,23.7,35.04
11BHM01,5/6/2011,5:50,5/6/2011,1:50,29.56763,-86.58143,8.1159,24.06,34.95
11BHM01,5/6/2011,6:05,5/6/2011,2:05,29.5665,-86.5813,7.9431,24.06,34.95
11BHM01,5/6/2011,6:19,5/6/2011,2:19,29.56163,-86.58825,8.186,24.09,34.93
11BHM01,5/6/2011,6:34,5/6/2011,2:34,29.55615,-86.5964,7.9036,24.11,34.95
11BHM01,5/6/2011,6:49,5/6/2011,2:49,29.55007,-86.60638,8.2776,24.14,34.93
11BHM01,5/6/2011,7:20,5/6/2011,3:20,29.54373,-86.62162,7.9039,24.09,34.85
11BHM01,5/6/2011,7:35,5/6/2011,3:35,29.54373,-86.63492,7.9985,23.83,34.83
11BHM01,5/6/2011,7:49,5/6/2011,3:49,29.55348,-86.64623,8.1187,23.75,34.9
11BHM01,5/6/2011,8:04,5/6/2011,4:04,29.56743,-86.64513,8.3003,23.86,34.86
11BHM01,5/6/2011,8:19,5/6/2011,4:19,29.55693,-86.63797,8.2019,24.06,35.07
11BHM01,5/6/2011,8:35,5/6/2011,4:35,29.52493,-86.65798,8.1089,23.99,35.56
11BHM01,5/6/2011,8:50,5/6/2011,4:50,29.50263,-86.68782,7.7772,23.93,35.53
11BHM01,5/6/2011,9:05,5/6/2011,5:05,29.48018,-86.71485,8.0654,23.96,35.59
11BHM01,5/6/2011,9:19,5/6/2011,5:19,29.45982,-86.74728,8.2479,23.93,35.6
11BHM01,5/6/2011,9:34,5/6/2011,5:34,29.44237,-86.7818,8.2248,24.04,35.57
11BHM01,5/6/2011,9:49,5/6/2011,5:49,29.4354,-86.78515,8.2997,24.06,35.49
11BHM01,5/6/2011,10:05,5/6/2011,6:05,29.43343,-86.78415,8.1955,23.99,36.01
11BHM01,5/6/2011,10:20,5/6/2011,6:20,29.43127,-86.7833,8.0346,23.96,36.12
11BHM01,5/6/2011,10:35,5/6/2011,6:35,29.4218,-86.78642,8.0269,23.86,36.36
11BHM01,5/6/2011,10:49,5/6/2011,6:49,29.41208,-86.7902,7.8811,23.83,35.75
11BHM01,5/6/2011,11:04,5/6/2011,7:04,29.40248,-86.79468,8.2135,23.78,36.33
11BHM01,5/6/2011,11:19,5/6/2011,7:19,29.39162,-86.79837,8.1315,24.01,36.33
11BHM01,5/6/2011,11:35,5/6/2011,7:35,29.38015,-86.80227,8.0093,24.14,36.32
11BHM01,5/6/2011,11:50,5/6/2011,7:50,29.36845,-86.80255,8.0652,24.11,36.33
11BHM01,5/6/2011,12:05,5/6/2011,8:05,29.3574,-86.80248,8.0611,24.14,36.33
11BHM01,5/6/2011,12:19,5/6/2011,8:19,29.3457,-86.80468,8.1033,24.11,36.33
11BHM01,5/6/2011,12:34,5/6/2011,8:34,29.33493,-86.80842,8.189,24.14,36.33
11BHM01,5/6/2011,12:49,5/6/2011,8:49,29.32467,-86.81078,8.1572,24.06,36.33
11BHM01,5/6/2011,13:05,5/6/2011,9:05,29.31292,-86.81318,8.0696,24.35,36.33
11BHM01,5/6/2011,13:20,5/6/2011,9:20,29.3021,-86.81583,8.0737,24.17,36.32
11BHM01,5/6/2011,13:35,5/6/2011,9:35,29.29405,-86.82017,8.176,24.3,36.33
11BHM01,5/6/2011,13:49,5/6/2011,9:49,29.26395,-86.83758,8.0789,24.32,36.3
11BHM01,5/6/2011,14:04,5/6/2011,10:04,29.23118,-86.85508,8.2706,24.35,36.29
11BHM01,5/6/2011,14:19,5/6/2011,10:19,29.19882,-86.8724,7.9283,24.4,36.28
11BHM01,5/6/2011,14:35,5/6/2011,10:35,29.16405,-86.89148,8.0714,24.42,36.29
11BHM01,5/6/2011,14:50,5/6/2011,10:50,29.13217,-86.90877,7.9843,24.5,36.3
11BHM01,5/6/2011,15:05,5/6/2011,11:05,29.10262,-86.92575,8.0453,24.48,36.31
11BHM01,5/6/2011,15:19,5/6/2011,11:19,29.07095,-86.9448,8.0769,24.5,36.3
11BHM01,5/6/2011,15:34,5/6/2011,11:34,29.03947,-86.96458,8.1523,24.5,36.3
11BHM01,5/6/2011,15:49,5/6/2011,11:49,29.00867,-86.98592,7.981,24.53,36.3
11BHM01,5/6/2011,16:05,5/6/2011,12:05,28.98915,-86.99765,7.9898,24.48,36.31
11BHM01,5/6/2011,16:20,5/6/2011,12:20,28.98477,-86.99705,8.1043,24.5,36.31
11BHM01,5/6/2011,16:35,5/6/2011,12:35,28.98137,-86.99727,8.066,24.53,36.32
11BHM01,5/6/2011,16:49,5/6/2011,12:49,28.97692,-86.99808,8.0586,24.45,36.33
11BHM01,5/6/2011,17:04,5/6/2011,13:04,28.97265,-86.99938,8.1367,24.48,36.32
11BHM01,5/6/2011,17:19,5/6/2011,13:19,28.96907,-87.0006,8.1633,24.45,36.33
11BHM01,5/6/2011,17:35,5/6/2011,13:35,28.96632,-87.00103,8.0373,24.45,36.32
11BHM01,5/6/2011,17:50,5/6/2011,13:50,28.9642,-86.98987,8.0169,24.48,36.35
11BHM01,5/6/2011,18:05,5/6/2011,14:05,28.95393,-86.9891,7.9526,24.5,36.35
11BHM01,5/6/2011,18:19,5/6/2011,14:19,28.9419,-86.99255,8.0194,24.48,36.34
11BHM01,5/6/2011,18:34,5/6/2011,14:34,28.93702,-87.00738,7.9404,24.48,36.34
11BHM01,5/6/2011,18:49,5/6/2011,14:49,28.93252,-87.01925,8.1132,24.48,36.35
11BHM01,5/6/2011,19:05,5/6/2011,15:05,28.92735,-87.033,8.215,24.5,36.34
11BHM01,5/6/2011,19:20,5/6/2011,15:20,28.92302,-87.04517,8.0552,24.5,36.34
11BHM01,5/6/2011,19:35,5/6/2011,15:35,28.919,-87.05627,8.073,24.5,36.34
11BHM01,5/6/2011,19:49,5/6/2011,15:49,28.91478,-87.06823,8.0894,24.5,36.34
11BHM01,5/6/2011,20:04,5/6/2011,16:04,28.91067,-87.07967,8.0185,24.5,36.33
11BHM01,5/6/2011,20:19,5/6/2011,16:19,28.90675,-87.09045,8.0799,24.53,36.32
11BHM01,5/6/2011,20:35,5/6/2011,16:35,28.90263,-87.10198,8.1127,24.55,36.33
11BHM01,5/6/2011,20:50,5/6/2011,16:50,28.8987,-87.11265,8.1715,24.55,36.33
11BHM01,5/6/2011,21:05,5/6/2011,17:05,28.89537,-87.12242,8.2211,24.55,36.34
11BHM01,5/6/2011,21:19,5/6/2011,17:19,28.89213,-87.13255,8.1919,24.58,36.36
11BHM01,5/6/2011,21:34,5/6/2011,17:34,28.89447,-87.13917,8.1839,24.58,36.37
11BHM01,5/6/2011,21:49,5/6/2011,17:49,28.91697,-87.12982,8.1587,24.55,36.37
11BHM01,5/6/2011,22:05,5/6/2011,18:05,28.91378,-87.13245,8.095,24.58,36.37
11BHM01,5/6/2011,22:20,5/6/2011,18:20,28.9111,-87.1352,8.1957,24.63,36.37
11BHM01,5/6/2011,22:35,5/6/2011,18:35,28.90937,-87.13728,8.0898,24.63,36.37
11BHM01,5/6/2011,22:49,5/6/2011,18:49,28.90727,-87.13988,8.0645,24.66,36.37
11BHM01,5/6/2011,23:04,5/6/2011,19:04,28.90587,-87.14143,8.1639,24.68,36.37
11BHM01,5/6/2011,23:19,5/6/2011,19:19,28.90378,-87.14385,7.9986,24.68,36.37
11BHM01,5/6/2011,23:35,5/6/2011,19:35,28.91312,-87.13923,8.0844,24.66,36.38
11BHM01,5/6/2011,23:50,5/6/2011,19:50,28.91677,-87.13673,8.1163,24.63,36.37
11BHM01,5/7/2011,0:05,5/6/2011,20:05,28.91522,-87.13812,8.1222,24.68,36.38
11BHM01,5/7/2011,0:19,5/6/2011,20:19,28.91372,-87.14032,8.149,24.68,36.38
11BHM01,5/7/2011,0:34,5/6/2011,20:34,28.9124,-87.14353,8.1786,24.74,36.35
11BHM01,5/7/2011,0:49,5/6/2011,20:49,28.89345,-87.1749,8.0367,24.71,36.32
11BHM01,5/7/2011,1:05,5/6/2011,21:05,28.87247,-87.21143,8.0327,24.68,36.3
11BHM01,5/7/2011,1:20,5/6/2011,21:20,28.8525,-87.2453,7.9895,24.71,36.31
11BHM01,5/7/2011,1:35,5/6/2011,21:35,28.84353,-87.2616,8.2726,24.71,36.33
11BHM01,5/7/2011,1:49,5/6/2011,21:49,28.84268,-87.26267,8.1287,24.68,36.34
11BHM01,5/7/2011,2:04,5/6/2011,22:04,28.84207,-87.26362,8.1957,24.71,36.35
11BHM01,5/7/2011,2:19,5/6/2011,22:19,28.84138,-87.26527,8.0467,24.71,36.37
11BHM01,5/7/2011,2:35,5/6/2011,22:35,28.84062,-87.2667,8.0579,24.68,36.38
11BHM01,5/7/2011,2:50,5/6/2011,22:50,28.83998,-87.26768,8.1682,24.71,36.37
11BHM01,5/7/2011,3:05,5/6/2011,23:05,28.83943,-87.26827,8.1854,24.74,36.35
11BHM01,5/7/2011,3:19,5/6/2011,23:19,28.83888,-87.26872,8.0588,24.74,36.32
11BHM01,5/7/2011,3:34,5/6/2011,23:34,28.8384,-87.26912,8.0788,24.71,36.31
11BHM01,5/7/2011,3:49,5/6/2011,23:49,28.83797,-87.27578,8.0781,24.61,36.31